Overview Statistics Trail Chart Weather Telemetry Raw packets
 

This is the latest recevied weather packets stored in our database for station/object WI0K. If no packets are shown the sender has not sent any weather packets the latest 10 day(s).

<< 16 17 18 19 20 21 22 >>
Time Temp. Humidity Pressure Rain* Wind** Luminosity Snow
1788548196 31.11° C 24% 1017.8 hPa 0 mm - 924 W/m² -
1788547907 31.11° C 24% 1017.9 hPa 0 mm - 922 W/m² -
1788547595 30.56° C 24% 1018.1 hPa 0 mm - 922 W/m² -
1788547294 31.11° C 24% 1018.1 hPa 0 mm - 922 W/m² -
1788546993 31.11° C 24% 1018.1 hPa 0 mm - 918 W/m² -
1788546692 31.11° C 23% 1018.2 hPa 0 mm - 916 W/m² -
1788546391 30.56° C 26% 1018.2 hPa 0 mm - 913 W/m² -
1788546091 30° C 26% 1018.2 hPa 0 mm - 911 W/m² -
1788545790 30.56° C 25% 1018.3 hPa 0 mm - 909 W/m² -
1788545489 30.56° C 25% 1018.3 hPa 0 mm - 902 W/m² -
1788545188 30.56° C 25% 1018.4 hPa 0 mm - 895 W/m² -
1788544888 30° C 25% 1018.5 hPa 0 mm - 895 W/m² -
1788544587 30° C 26% 1018.5 hPa 0 mm - 891 W/m² -
1788544286 30° C 26% 1018.5 hPa 0 mm - 884 W/m² -
1788543986 30° C 26% 1018.5 hPa 0 mm - 880 W/m² -
1788543685 30° C 25% 1018.5 hPa 0 mm - 875 W/m² -
1788543384 30° C 26% 1018.5 hPa 0 mm - 866 W/m² -
1788543083 29.44° C 28% 1018.5 hPa 0 mm - 857 W/m² -
1788542781 28.89° C 26% 1018.5 hPa 0 mm - 848 W/m² -
1788542480 28.89° C 26% 1018.5 hPa 0 mm - 842 W/m² -
1788542179 29.44° C 25% 1018.5 hPa 0 mm - 834 W/m² -
1788541878 28.89° C 27% 1018.5 hPa 0 mm - 824 W/m² -
1788541578 29.44° C 27% 1018.5 hPa 0 mm - 813 W/m² -
1788541277 28.89° C 28% 1018.5 hPa 0 mm - 805 W/m² -
1788540976 28.89° C 28% 1018.5 hPa 0 mm - 791 W/m² -

* Rain latest hour (hover to see other rain measurements)
** Current wind speed in m/s (hover to see current wind gust speed)